ATLAS 5 CENTAUR DEB, 57591

Orbit data source: Space-Track

ATLAS 5 CENTAUR DEB, 57591 is space debris in HEO originally from a launch on Wed, 17 Oct 2018 UTC launched from the Air Force Eastern Test Range (AFETR). Debris objects in space refer to the collection of defunct objects orbiting the Earth. Examples of debris include non-operational satellites, rocket bodies, and fragments generated from explosions, collisions, or faulty payload assembly.

Loading next visibility...
Identifier
57591, 2018-079HS
Orbit
HEO
Country
Flag of USUS
Related business
Flag of USUnited Launch Alliance/Lockheed Martin (US)
Manufacturer
ULA Decatur
Mission
Spacecraft
Bus & Motor
Unknown
Mass
Unknown
Launch date (UTC)
2018-10-17 (8 years ago)
Launch vehicle
Unknown
Launch site
Air Force Eastern Test Range (AFETR)
Object type
Payload
Rocket body
Debris
Shape & HBR
Unknown shape, 1.1 m
Radar Cross Section
RCS unknown

Expand to show TLE details & history
Last TLE update: 12 hours ago

TLE from 12 hours ago
0 ATLAS 5 CENTAUR DEB
1 57591U 18079HS  26254.08420131 -.00000150  00000-0  00000-0 0  9997
2 57591  12.7643  58.7702 4288862 273.9031  39.6432  1.80137738 27042
Epoch: 2026-09-11T02:01Z
TLE epoch observation values (Epoch: 2026-09-11T02:01:14.993Z)
Latitude
-0°
Longitude
38.43572°
Altitude
16,219.798 km
Speed
4.616 km/s
True Right ascension
03h 55m 26s
True Declination
0° 00' 00"
Sunlit
Object was in daylight at epoch
Visualization orbit readout
Latitude
Unknown
Longitude
Unknown
Altitude
Unknown
Speed
Unknown
Apparent Right ascension
Unknown
Apparent Declination
Unknown
Sunlit
N/A
Visualization observer readout
Local Sidereal Time
06:10:42
Azimuth
Unknown
Elevation
Unknown
Doppler factor
Unknown
Orbital elements
Apogee altitude
34,393.625 km
Perigee altitude
9,917.994 km
Semi-major axis
28,533.946 km
Eccentricity
0.42889
Inclination
12.7643°
RAAN
58.7702°
Arg. of periapsis
273.9031°
True anomaly
86.14623°
Mean anomaly
39.6432°
Eccentric anomaly
61.17102°
Mean motion
0.4503 °/min
Orbital period
799.47 mins
BSTAR
0
Loading maneuver chart data...
Computing Atmospheric mass density...

Documentation

Showing up to 5 results
|